Find Starlink 32635

NORAD ID: 62155 Int'l Des: 2024-224 Owner: SPXS Country: US Constellation: starlink operational
LEOCIRCULAR

現在のビュー

3D地球を読み込み中...

About Starlink 32635

Starlink 32635 (NORAD 62155) is a starlink constellation satellite (v2 mini) launched Nov 30, 2024 by SPXS of US. It operates in LEO, CIRCULAR orbit with a mass of 730.00 kg.

Starlink 32635について

説明を読み込み中...

次回通過

Passes for default location (London). Set your location on the main map for personalized predictions.

高度履歴

Loading altitude history...

軌道要素

1 62155U 24224S 26171.42013913 .00024463 00000-0 89499-3 0 9994
2 62155 42.9998 305.5131 0001300 244.7992 115.2725 15.27600663 87948
Epoch: Jun 20, 2026 • Age: 36 hours

現在のステータス

高度 486.7 km
速度 7.63 km/s
衛星直下点 43.11°N, 141.37°E
打ち上げ日 Nov 30, 2024
運用期間 1.5 years
タイプ internet

技術仕様

分類 Payload
質量 730.00 kg
乾燥質量 700.00 kg
総質量 730.00 kg
長さ 0.30 m
直径 4.10 m
スパン 29.00 m
形状 Box + pan
製造者 SPXS
バスタイプ Starlink V2M
フェーズステータス In Orbit
所有者/国 SPXS/US

Most Searched